Jackson, TN

4:03 AM CDT on March 24, 2017 (GMT -0500)
McKellar-Sipes Regional

Weather History for KMKL - April, 2013

Change the Weather History Date:

Sunday, April 28, 2013

  Actual Average Record
Temperature  
Mean Temperature 55 °F 64 °F  
Max Temperature 63 °F 76 °F 91 °F (1989)
Min Temperature 47 °F 52 °F 34 °F (1992)
Degree Days  
Heating Degree Days 10 4  
Month to date heating degree days 242 191  
Since 1 July heating degree days 3579 3519  
Cooling Degree Days 0 2  
Month to date cooling degree days 52 42  
Year to date cooling degree days 56 53  
Growing Degree Days 6 (Base 50)    
Moisture  
Dew Point 54 °F    
Average Humidity 86    
Maximum Humidity 100    
Minimum Humidity 72    
Precipitation  
Precipitation T in 0.17 in 2.48 in (1954)
Month to date precipitation 10.60 4.52  
Year to date precipitation 26.39 17.51  
Snow  
Snow 0.00 in 0.00 in - ()
Month to date snowfall 0.0 0.1  
Since 1 July snowfall 1.4 4.7  
Snow Depth 0.00 in    
Sea Level Pressure  
Sea Level Pressure 29.96 in    
Wind  
Wind Speed 5 mph (WNW)    
Max Wind Speed 12 mph    
Max Gust Speed 15 mph    
Visibility 9 miles    
Events      
T = Trace of Precipitation, MM = Missing Value Source: NWS Daily Summary

Daily Weather History Graph

Daily Weather History Graph

Search for Another Location

Airport or City:

Trip Planner

Search our weather history database for the weather conditions in past years. The results will help you decide how hot, cold, wet, or windy it might be!

Date:

Astronomy

Apr. 28, 2013 Rise Set
Actual Time 6:06 AM CDT 7:39 PM CDT
Civil Twilight 5:39 AM CDT 8:07 PM CDT
Nautical Twilight 5:07 AM CDT 8:39 PM CDT
Astronomical Twilight 4:33 AM CDT 9:14 PM CDT
Moon 11:06 PM CDT (4/28) 8:27 AM CDT (4/28)
Length of Visible Light 14h 27m
Length of Day
13h 33m
Waning Gibbous, 88% of the Moon is Illuminated
Apr 28
Waning Gibbous
May 2
Last Quarter
May 9
New
May 17
First Quarter
May 24
Full

Hourly Weather History & Observations

Time (CDT) Temp. Dew Point Humidity Pressure Visibility Wind Dir Wind Speed Gust Speed Precip Events Conditions
12:00 AM 62.6 °F 60.8 °F 94% 29.95 in 10.0 mi Calm Calm - N/A   Mostly Cloudy
12:53 AM 61.0 °F 59.0 °F 93% 29.96 in 10.0 mi West 6.9 mph - N/A   Overcast
1:12 AM 60.8 °F 59.0 °F 94% 29.96 in 10.0 mi WNW 6.9 mph - N/A   Overcast
1:53 AM 60.1 °F 59.0 °F 96% 29.94 in 8.0 mi WNW 5.8 mph - N/A   Overcast
2:53 AM 59.0 °F 57.9 °F 96% 29.93 in 8.0 mi West 8.1 mph - 0.00 in   Overcast
3:53 AM 57.9 °F 57.0 °F 97% 29.93 in 10.0 mi West 5.8 mph - N/A   Overcast
4:53 AM 57.0 °F 55.9 °F 96% 29.93 in 10.0 mi West 4.6 mph - N/A   Overcast
5:09 AM 57.2 °F 55.4 °F 94% 29.93 in 10.0 mi West 4.6 mph - N/A   Overcast
5:50 AM 57.2 °F 55.4 °F 94% 29.95 in 10.0 mi West 5.8 mph - N/A   Overcast
5:53 AM 57.0 °F 55.0 °F 93% 29.95 in 10.0 mi WNW 5.8 mph - N/A   Overcast
6:27 AM 57.2 °F 55.4 °F 94% 29.96 in 10.0 mi West 4.6 mph - N/A   Overcast
6:53 AM 57.0 °F 55.0 °F 93% 29.96 in 10.0 mi WSW 4.6 mph - N/A   Overcast
8:05 AM 57.2 °F 55.4 °F 94% 29.99 in 10.0 mi West 5.8 mph - N/A   Overcast
8:53 AM 59.0 °F 55.0 °F 87% 29.98 in 10.0 mi NW 4.6 mph - N/A   Overcast
9:41 AM 60.8 °F 55.4 °F 82% 29.98 in 10.0 mi NW 5.8 mph - N/A   Overcast
9:53 AM 60.1 °F 55.0 °F 83% 29.98 in 10.0 mi NW 4.6 mph - N/A   Overcast
10:04 AM 60.8 °F 55.4 °F 82% 29.98 in 10.0 mi NW 9.2 mph - N/A   Overcast
10:35 AM 60.8 °F 55.4 °F 82% 29.97 in 10.0 mi NW 11.5 mph - N/A   Overcast
10:45 AM 60.8 °F 55.4 °F 82% 29.97 in 10.0 mi NW 8.1 mph - N/A   Overcast
10:53 AM 60.1 °F 55.0 °F 83% 29.97 in 10.0 mi WNW 9.2 mph - N/A   Overcast
11:53 AM 61.0 °F 55.0 °F 81% 29.98 in 10.0 mi WNW 5.8 mph - N/A   Overcast
12:02 PM 62.6 °F 55.4 °F 77% 29.98 in 10.0 mi NNW 6.9 mph - N/A   Overcast
12:53 PM 63.0 °F 55.9 °F 78% 29.98 in 10.0 mi NNW 8.1 mph - N/A   Overcast
1:53 PM 63.0 °F 55.0 °F 75% 29.98 in 10.0 mi NNW 9.2 mph - N/A   Overcast
2:15 PM 62.6 °F 55.4 °F 77% 29.98 in 10.0 mi NW 8.1 mph - N/A   Overcast
2:53 PM 60.1 °F 54.0 °F 80% 29.96 in 10.0 mi WNW 8.1 mph - N/A   Overcast
3:53 PM 62.1 °F 54.0 °F 75% 29.96 in 10.0 mi WSW 4.6 mph - N/A   Overcast
4:53 PM 61.0 °F 54.0 °F 78% 29.96 in 10.0 mi WNW 5.8 mph - N/A   Overcast
5:53 PM 61.0 °F 53.1 °F 75% 29.95 in 10.0 mi WNW 6.9 mph - N/A   Mostly Cloudy
6:53 PM 61.0 °F 52.0 °F 72% 29.94 in 10.0 mi West 4.6 mph - N/A   Clear
7:53 PM 55.0 °F 51.1 °F 86% 29.95 in 10.0 mi Calm Calm - N/A   Clear
8:53 PM 51.1 °F 50.0 °F 96% 29.96 in 10.0 mi Calm Calm - N/A   Clear
9:53 PM 50.0 °F 48.9 °F 96% 29.96 in 10.0 mi SSW 3.5 mph - N/A   Clear
10:21 PM 51.8 °F 48.2 °F 88% 29.96 in 2.0 mi Calm Calm - N/A   Clear
10:28 PM 50.0 °F 48.2 °F 94% 29.96 in 1.0 mi Calm Calm - N/A   Clear
10:44 PM 51.8 °F 50.0 °F 94% 29.96 in 3.0 mi Calm Calm - N/A   Clear
10:53 PM 50.0 °F 48.9 °F 96% 29.96 in 9.0 mi Calm Calm - N/A   Clear
11:33 PM 48.2 °F 48.2 °F 100% 29.97 in 1.8 mi Calm Calm - 0.01 in   Clear
11:41 PM 48.2 °F 46.4 °F 93% 29.97 in 3.0 mi Calm Calm - 0.01 in   Clear
11:53 PM 46.9 °F 46.9 °F 100% 29.97 in 1.5 mi Calm Calm - 0.01 in   Clear